Weather History for KTTD - February, 2013

Change the Weather History Date:

Wednesday, February 6, 2013

  Actual Average Record
Temperature  
Mean Temperature 46 °F 42 °F  
Max Temperature 52 °F 48 °F 58 °F (1996)
Min Temperature 40 °F 35 °F 18 °F (1989)
Degree Days  
Heating Degree Days 19 23  
Month to date heating degree days 115 140  
Cooling Degree Days 0 0  
Month to date cooling degree days 0 0  
Moisture  
Dew Point 39 °F    
Average Humidity 74    
Maximum Humidity 89    
Minimum Humidity 59    
Precipitation  
Precipitation 0.06 in 0.19 in - ()
Month to date precipitation 0.21 1.14  
Year to date precipitation 3.76 7.32  
Snow  
Snow 0.00 in - - ()
Month to date snowfall 0.0  
Snow Depth 0.00 in    
Sea Level Pressure  
Sea Level Pressure 30.02 in    
Wind  
Wind Speed 6 mph (SE)    
Max Wind Speed 21 mph    
Max Gust Speed 28 mph    
Visibility 10 miles    
Events Rain    
T = Trace of Precipitation, MM = Missing Value Source: NWS Daily Summary

Daily Weather History Graph

Daily Weather History Graph

Search for Another Location

Airport or City:

Trip Planner

Search our weather history database for the weather conditions in past years. The results will help you decide how hot, cold, wet, or windy it might be!

Date:

Astronomy

Feb. 06, 2013 Rise Set
Actual Time 7:23 AM PST 5:24 PM PST
Civil Twilight 6:52 AM PST 5:55 PM PST
Nautical Twilight 6:17 AM PST 6:30 PM PST
Astronomical Twilight 5:43 AM PST 7:05 PM PST
Moon 4:18 AM PST (2/6) 1:42 PM PST (2/6)
Length of Visible Light 11h 02m
Length of Day
10h 00m
Waning Crescent, 16% of the Moon is Illuminated
Feb 6
Waning Crescent
Feb 9
New
Feb 17
First Quarter
Feb 25
Full
Mar 4
Last Quarter

Hourly Weather History & Observations

Time (PST) Temp. Windchill Dew Point Humidity Pressure Visibility Wind Dir Wind Speed Gust Speed Precip Events Conditions
12:53 AM 46.9 °F - 39.9 °F 77% 30.06 in 10.0 mi SSW 9.2 mph - N/A   Overcast
1:53 AM 46.0 °F 41.0 °F 39.0 °F 76% 30.08 in 10.0 mi SW 10.4 mph - N/A   Clear
2:53 AM 46.0 °F 41.9 °F 39.0 °F 76% 30.08 in 10.0 mi SW 8.1 mph - N/A   Partly Cloudy
3:53 AM 44.1 °F - 37.9 °F 79% 30.10 in 10.0 mi Calm Calm - N/A   Partly Cloudy
4:53 AM 45.0 °F - 39.0 °F 80% 30.11 in 10.0 mi Calm Calm - N/A   Overcast
5:53 AM 41.0 °F - 37.0 °F 86% 30.10 in 10.0 mi Calm Calm - N/A   Scattered Clouds
6:53 AM 41.0 °F - 37.9 °F 89% 30.10 in 10.0 mi Calm Calm - N/A   Overcast
7:53 AM 42.1 °F - 39.0 °F 89% 30.11 in 10.0 mi Calm Calm - N/A   Overcast
8:53 AM 45.0 °F - 39.9 °F 82% 30.11 in 10.0 mi Calm Calm - N/A   Overcast
9:53 AM 48.0 °F - 39.9 °F 74% 30.10 in 10.0 mi Variable 3.5 mph - N/A   Mostly Cloudy
10:53 AM 50.0 °F - 39.9 °F 68% 30.09 in 10.0 mi SSW 5.8 mph - N/A   Overcast
11:53 AM 50.0 °F - 39.9 °F 68% 30.07 in 10.0 mi SE 4.6 mph - 0.00 in   Overcast
12:53 PM 50.0 °F - 41.0 °F 71% 30.04 in 10.0 mi East 5.8 mph - N/A   Overcast
1:53 PM 52.0 °F - 37.9 °F 59% 30.02 in 10.0 mi SSW 6.9 mph - N/A   Overcast
2:53 PM 50.0 °F - 39.9 °F 68% 29.99 in 10.0 mi East 10.4 mph - N/A   Overcast
3:53 PM 48.9 °F - 39.9 °F 71% 29.98 in 10.0 mi East 10.4 mph - N/A   Overcast
4:53 PM 48.0 °F - 39.0 °F 71% 29.97 in 10.0 mi East 6.9 mph - N/A   Overcast
5:53 PM 46.9 °F - 39.0 °F 74% 29.94 in 10.0 mi East 10.4 mph - 0.00 in   Mostly Cloudy
6:53 PM 46.9 °F - 39.9 °F 77% 29.91 in 10.0 mi East 8.1 mph - N/A   Overcast
7:53 PM 46.9 °F - 39.9 °F 77% 29.89 in 10.0 mi ESE 5.8 mph - N/A   Overcast
8:53 PM 46.0 °F 43.1 °F 39.0 °F 76% 29.88 in 10.0 mi East 5.8 mph - N/A   Overcast
9:53 PM 46.0 °F 41.4 °F 37.9 °F 73% 29.86 in 10.0 mi East 9.2 mph - N/A   Overcast
10:53 PM 48.0 °F - 39.0 °F 71% 29.89 in 10.0 mi South 4.6 mph - 0.01 in Rain Light Rain
11:53 PM 45.0 °F 38.5 °F 37.9 °F 76% 29.93 in 7.0 mi SW 13.8 mph - 0.05 in Rain Light Rain